Tracking 19249 objects as of 15-Oct-2018
HD Live streaming from Space Station
objects crossing your sky now

HINCUBE

Track HINCUBE now!
10-day predictions
HINCUBE is classified as:


NORAD ID: 39445
Int'l Code: 2013-066AF
Perigee: 589.5 km
Apogee: 673.0 km
Inclination: 97.6 °
Period: 97.2 minutes
Semi major axis: 7002 km
RCS: Unknown
Launch date: November 21, 2013
Source: Norway (NOR)
Launch site: Orenburg, Russia (OREN)

Uplink (MHz):
Downlink (MHz): 437.305
Beacon (MHz):
Mode:
Call sign:
Status: Inactive

aabbcc
Your satellite tracking list
Your tracking list is empty




NASA's NSSDC Master Catalog

Two Line Element Set (TLE):
1 39445U 13066AF  18288.08109635  .00000287  00000-0  41746-4 0  9993
2 39445  97.5811 311.8616 0059598 117.6569 243.0711 14.81649304262968
Source of the keplerian elements: AFSPC